ACA638 CYQB-CYNA

Flight info

Callsign ACA638
Flight time 1h 9m
Altitude 37000
Route GOXEV2 FLEUR DCT VODIX
Aircraft A20N/M-SDE2E3FGHIRWXY/LB1

Departure

Time 2026-05-04 18:36
Airport Quebec Jean Lesage International Airport (CYQB)

Arrival

Time 2026-05-04 19:46
Airport Natashquan Airport (CYNA)
Time Latitude Longitude Altitude Speed Heading
2026-05-04 18:35 46.79943 -71.38065 253 ft 1 kts 326°
2026-05-04 18:35 46.79960 -71.38091 253 ft 7 kts 308°
2026-05-04 18:35 46.79949 -71.38174 253 ft 15 kts 230°
2026-05-04 18:36 46.79782 -71.38419 253 ft 88 kts 224°
2026-05-04 18:36 46.79121 -71.39365 280 ft 171 kts 225°
2026-05-04 18:36 46.78145 -71.40685 736 ft 214 kts 225°
2026-05-04 18:36 46.76913 -71.42312 1429 ft 259 kts 220°
2026-05-04 18:37 46.75215 -71.43389 2713 ft 281 kts 185°
2026-05-04 18:37 46.73282 -71.42659 3682 ft 293 kts 148°
2026-05-04 18:37 46.72096 -71.40436 4039 ft 277 kts 108°
2026-05-04 18:37 46.72110 -71.37668 4311 ft 278 kts 71°
2026-05-04 18:38 46.72993 -71.35198 4468 ft 272 kts 49°
2026-05-04 18:38 46.74245 -71.33104 4776 ft 275 kts 46°
2026-05-04 18:38 46.75432 -71.30892 5024 ft 280 kts 53°
2026-05-04 18:38 46.76441 -71.28425 5779 ft 287 kts 60°
2026-05-04 18:39 46.77304 -71.25796 7183 ft 289 kts 63°
2026-05-04 18:39 46.78106 -71.23059 8420 ft 299 kts 65°
2026-05-04 18:39 46.78895 -71.20207 9702 ft 307 kts 65°
2026-05-04 18:39 46.79694 -71.17262 10771 ft 322 kts 65°
2026-05-04 18:40 46.80552 -71.14102 11431 ft 347 kts 65°
2026-05-04 18:40 46.81472 -71.10722 12153 ft 366 kts 65°
2026-05-04 18:40 46.82418 -71.07235 13259 ft 373 kts 64°
2026-05-04 18:40 46.83382 -71.03679 14295 ft 380 kts 64°
2026-05-04 18:41 46.84363 -71.00062 15307 ft 386 kts 64°
2026-05-04 18:41 46.85344 -70.96449 16353 ft 390 kts 64°
2026-05-04 18:41 46.86356 -70.92721 17300 ft 398 kts 63°
2026-05-04 18:41 46.87165 -70.89735 18041 ft 403 kts 63°
2026-05-04 18:42 46.87942 -70.86869 18678 ft 408 kts 63°
2026-05-04 18:42 46.88995 -70.82972 19555 ft 413 kts 63°
2026-05-04 18:42 46.90052 -70.79046 20432 ft 417 kts 63°
2026-05-04 18:42 46.91122 -70.75070 21274 ft 423 kts 62°
2026-05-04 18:43 46.92206 -70.71034 22110 ft 428 kts 62°
2026-05-04 18:43 46.93302 -70.66950 22939 ft 433 kts 61°
2026-05-04 18:43 46.94409 -70.62819 23681 ft 439 kts 61°
2026-05-04 18:43 46.95526 -70.58642 24367 ft 443 kts 62°
2026-05-04 18:44 46.96641 -70.54468 25030 ft 448 kts 62°
2026-05-04 18:44 46.97409 -70.51590 25487 ft 451 kts 62°
2026-05-04 18:44 46.99066 -70.46018 26395 ft 449 kts 55°
2026-05-04 18:44 47.00713 -70.42143 26978 ft 449 kts 49°
2026-05-04 18:45 47.02480 -70.38344 27574 ft 453 kts 49°
2026-05-04 18:45 47.04257 -70.34498 28154 ft 458 kts 49°
2026-05-04 18:45 47.06051 -70.30603 28625 ft 465 kts 50°
2026-05-04 18:45 47.07874 -70.26637 29132 ft 470 kts 50°
2026-05-04 18:46 47.09703 -70.22644 29686 ft 473 kts 51°
2026-05-04 18:46 47.11544 -70.18616 30141 ft 477 kts 51°
2026-05-04 18:46 47.13399 -70.14553 30604 ft 481 kts 51°
2026-05-04 18:46 47.15266 -70.10461 31091 ft 483 kts 51°
2026-05-04 18:47 47.17134 -70.06357 31668 ft 483 kts 52°
2026-05-04 18:47 47.19002 -70.02248 32282 ft 482 kts 52°
2026-05-04 18:47 47.20861 -69.98153 32881 ft 481 kts 52°
2026-05-04 18:47 47.22716 -69.94061 33482 ft 481 kts 53°
2026-05-04 18:48 47.24568 -69.89972 33991 ft 480 kts 53°
2026-05-04 18:48 47.26397 -69.85926 34423 ft 480 kts 53°
2026-05-04 18:48 47.28247 -69.81827 34849 ft 481 kts 54°
2026-05-04 18:48 47.30100 -69.77717 35247 ft 482 kts 54°
2026-05-04 18:49 47.31953 -69.73598 35654 ft 483 kts 54°
2026-05-04 18:49 47.33809 -69.69466 36066 ft 483 kts 54°
2026-05-04 18:49 47.35663 -69.65330 36426 ft 485 kts 54°
2026-05-04 18:49 47.37524 -69.61174 36628 ft 486 kts 54°
2026-05-04 18:50 47.39383 -69.57014 36696 ft 484 kts 54°
2026-05-04 18:50 47.43077 -69.48730 36689 ft 483 kts 55°
2026-05-04 18:51 47.46745 -69.40483 36683 ft 482 kts 55°
2026-05-04 18:51 47.50420 -69.32194 36678 ft 482 kts 55°
2026-05-04 18:52 47.54094 -69.23882 36676 ft 482 kts 55°
2026-05-04 18:52 47.57605 -69.15423 36681 ft 482 kts 58°
2026-05-04 18:53 47.61022 -69.06858 36684 ft 482 kts 58°
2026-05-04 18:53 47.64466 -68.98322 36679 ft 482 kts 58°
2026-05-04 18:54 47.67918 -68.89790 36677 ft 482 kts 58°
2026-05-04 18:54 47.71366 -68.81244 36671 ft 482 kts 58°
2026-05-04 18:55 47.74777 -68.72748 36680 ft 482 kts 58°
2026-05-04 18:55 47.79923 -68.59872 36671 ft 482 kts 58°
2026-05-04 18:56 47.83345 -68.51275 36676 ft 482 kts 58°
2026-05-04 18:56 47.86761 -68.42665 36673 ft 482 kts 58°
2026-05-04 18:57 47.90168 -68.34053 36677 ft 482 kts 58°
2026-05-04 18:57 47.93568 -68.25428 36659 ft 483 kts 58°
2026-05-04 18:58 47.96945 -68.16836 36661 ft 483 kts 59°
2026-05-04 18:58 48.00330 -68.08195 36663 ft 482 kts 59°
2026-05-04 18:59 48.03711 -67.99537 36660 ft 483 kts 59°
2026-05-04 18:59 48.07089 -67.90860 36660 ft 483 kts 59°
2026-05-04 19:00 48.10452 -67.82194 36657 ft 480 kts 59°
2026-05-04 19:00 48.13804 -67.73523 36655 ft 482 kts 59°
2026-05-04 19:01 48.17148 -67.64843 36645 ft 481 kts 59°
2026-05-04 19:01 48.20492 -67.56141 36653 ft 482 kts 60°
2026-05-04 19:02 48.23807 -67.47485 36640 ft 481 kts 60°
2026-05-04 19:02 48.27129 -67.38781 36640 ft 479 kts 60°
2026-05-04 19:03 48.30441 -67.30077 36637 ft 480 kts 60°
2026-05-04 19:03 48.33744 -67.21367 36629 ft 479 kts 60°
2026-05-04 19:04 48.37047 -67.12630 36628 ft 482 kts 60°
2026-05-04 19:04 48.40360 -67.03836 36629 ft 483 kts 60°
2026-05-04 19:05 48.43660 -66.95049 36609 ft 482 kts 60°
2026-05-04 19:05 48.46944 -66.86273 36619 ft 485 kts 60°
2026-05-04 19:06 48.50226 -66.77474 36617 ft 480 kts 60°
2026-05-04 19:06 48.53493 -66.68684 36595 ft 482 kts 61°
2026-05-04 19:07 48.56775 -66.59825 36598 ft 483 kts 61°
2026-05-04 19:07 48.60053 -66.50947 36594 ft 485 kts 61°
2026-05-04 19:08 48.63340 -66.42017 36583 ft 483 kts 61°
2026-05-04 19:08 48.66558 -66.33242 36591 ft 480 kts 61°
2026-05-04 19:09 48.69802 -66.24365 36581 ft 481 kts 61°
2026-05-04 19:09 48.73037 -66.15486 36570 ft 482 kts 61°
2026-05-04 19:10 48.76295 -66.06513 36566 ft 489 kts 61°
2026-05-04 19:10 48.79554 -65.97507 36556 ft 483 kts 62°
2026-05-04 19:11 48.82758 -65.88622 36564 ft 484 kts 62°
2026-05-04 19:11 48.85962 -65.79702 36540 ft 477 kts 62°
2026-05-04 19:12 48.90741 -65.66343 36540 ft 480 kts 62°
2026-05-04 19:13 48.93890 -65.57506 36537 ft 479 kts 62°
2026-05-04 19:13 48.97083 -65.48510 36516 ft 486 kts 62°
2026-05-04 19:14 49.00278 -65.39481 36513 ft 481 kts 62°
2026-05-04 19:14 49.03450 -65.30486 36502 ft 484 kts 62°
2026-05-04 19:15 49.06632 -65.21431 36500 ft 478 kts 62°
2026-05-04 19:15 49.09739 -65.12557 36488 ft 477 kts 62°
2026-05-04 19:16 49.12870 -65.03583 36488 ft 480 kts 62°
2026-05-04 19:16 49.15999 -64.94595 36469 ft 479 kts 62°
2026-05-04 19:17 49.19144 -64.85542 36472 ft 484 kts 62°
2026-05-04 19:17 49.22236 -64.76385 36436 ft 483 kts 68°
2026-05-04 19:17 49.23505 -64.71651 36258 ft 478 kts 69°
2026-05-04 19:18 49.24660 -64.66909 35862 ft 472 kts 70°
2026-05-04 19:18 49.25815 -64.62225 35256 ft 470 kts 69°
2026-05-04 19:18 49.27043 -64.57604 34617 ft 467 kts 67°
2026-05-04 19:18 49.28316 -64.53074 33816 ft 469 kts 66°
2026-05-04 19:19 49.29639 -64.48510 33022 ft 469 kts 65°
2026-05-04 19:19 49.30978 -64.43939 32170 ft 468 kts 65°
2026-05-04 19:19 49.32305 -64.39416 31355 ft 465 kts 65°
2026-05-04 19:19 49.33628 -64.34899 30583 ft 462 kts 64°
2026-05-04 19:20 49.34944 -64.30394 29738 ft 461 kts 64°
2026-05-04 19:20 49.36241 -64.25936 28932 ft 455 kts 63°
2026-05-04 19:20 49.37517 -64.21550 28309 ft 445 kts 63°
2026-05-04 19:20 49.38776 -64.17218 27463 ft 442 kts 64°
2026-05-04 19:21 49.40015 -64.12940 26677 ft 437 kts 63°
2026-05-04 19:21 49.41243 -64.08700 25949 ft 432 kts 63°
2026-05-04 19:21 49.42455 -64.04505 25158 ft 429 kts 64°
2026-05-04 19:21 49.43659 -64.00333 24479 ft 423 kts 64°
2026-05-04 19:22 49.44832 -63.96264 23728 ft 421 kts 64°
2026-05-04 19:22 49.46008 -63.92184 23119 ft 415 kts 64°
2026-05-04 19:22 49.47172 -63.88137 22324 ft 412 kts 64°
2026-05-04 19:22 49.48318 -63.84133 21480 ft 409 kts 64°
2026-05-04 19:23 49.49464 -63.80123 20680 ft 407 kts 64°
2026-05-04 19:23 49.50591 -63.76175 19976 ft 402 kts 64°
2026-05-04 19:23 49.51708 -63.72253 19339 ft 396 kts 65°
2026-05-04 19:23 49.52441 -63.69675 18809 ft 396 kts 64°
2026-05-04 19:24 49.53539 -63.65813 18164 ft 392 kts 64°
2026-05-04 19:24 49.54631 -63.61967 17386 ft 391 kts 64°
2026-05-04 19:24 49.55710 -63.58159 16707 ft 386 kts 64°
2026-05-04 19:24 49.56775 -63.54391 16003 ft 382 kts 64°
2026-05-04 19:25 49.57825 -63.50672 15357 ft 377 kts 64°
2026-05-04 19:25 49.58866 -63.46977 14675 ft 375 kts 64°
2026-05-04 19:25 49.59900 -63.43303 14026 ft 371 kts 64°
2026-05-04 19:25 49.60923 -63.39667 13393 ft 368 kts 64°
2026-05-04 19:26 49.61935 -63.36058 12703 ft 365 kts 63°
2026-05-04 19:26 49.62933 -63.32485 12157 ft 358 kts 63°
2026-05-04 19:26 49.63909 -63.28984 11560 ft 353 kts 62°
2026-05-04 19:26 49.64878 -63.25514 11265 ft 354 kts 62°
2026-05-04 19:27 49.65857 -63.22019 11177 ft 354 kts 62°
2026-05-04 19:27 49.66825 -63.18547 10950 ft 351 kts 62°
2026-05-04 19:27 49.67785 -63.15094 10550 ft 347 kts 62°
2026-05-04 19:27 49.68716 -63.11728 10419 ft 333 kts 62°
2026-05-04 19:28 49.69596 -63.08532 10275 ft 320 kts 61°
2026-05-04 19:28 49.70453 -63.05425 10145 ft 307 kts 61°
2026-05-04 19:28 49.71287 -63.02416 9810 ft 302 kts 60°
2026-05-04 19:28 49.72113 -62.99442 9388 ft 301 kts 60°
2026-05-04 19:29 49.72936 -62.96475 8910 ft 299 kts 60°
2026-05-04 19:29 49.73752 -62.93528 8426 ft 297 kts 60°
2026-05-04 19:29 49.74562 -62.90595 7953 ft 296 kts 60°
2026-05-04 19:29 49.75368 -62.87668 7485 ft 294 kts 60°
2026-05-04 19:30 49.76166 -62.84768 7070 ft 292 kts 61°
2026-05-04 19:30 49.76958 -62.81882 6613 ft 291 kts 61°
2026-05-04 19:30 49.77737 -62.79042 6228 ft 289 kts 61°
2026-05-04 19:30 49.78525 -62.76163 5710 ft 291 kts 61°
2026-05-04 19:31 49.79310 -62.73294 5324 ft 288 kts 61°
2026-05-04 19:31 49.80088 -62.70443 4993 ft 286 kts 62°
2026-05-04 19:31 49.80856 -62.67620 4692 ft 284 kts 62°
2026-05-04 19:31 49.81626 -62.64796 4386 ft 284 kts 61°
2026-05-04 19:32 49.82399 -62.61980 4085 ft 283 kts 62°
2026-05-04 19:32 49.83156 -62.59179 3822 ft 281 kts 62°
2026-05-04 19:32 49.83905 -62.56399 3499 ft 279 kts 62°
2026-05-04 19:32 49.84654 -62.53640 3200 ft 274 kts 62°
2026-05-04 19:33 49.85397 -62.50907 3120 ft 279 kts 62°
2026-05-04 19:33 49.86143 -62.48157 3117 ft 276 kts 62°
2026-05-04 19:33 49.86876 -62.45447 3118 ft 276 kts 62°
2026-05-04 19:33 49.87614 -62.42710 3117 ft 275 kts 62°
2026-05-04 19:34 49.88354 -62.39963 3118 ft 276 kts 62°
2026-05-04 19:34 49.89087 -62.37246 3105 ft 268 kts 63°
2026-05-04 19:34 49.89809 -62.34559 3113 ft 271 kts 63°
2026-05-04 19:34 49.90532 -62.31866 3013 ft 269 kts 63°
2026-05-04 19:35 49.91246 -62.29195 2699 ft 268 kts 63°
2026-05-04 19:35 49.91956 -62.26536 2302 ft 266 kts 63°
2026-05-04 19:35 49.92668 -62.23880 2143 ft 271 kts 63°
2026-05-04 19:35 49.93385 -62.21198 2105 ft 265 kts 63°
2026-05-04 19:36 49.94095 -62.18540 2097 ft 268 kts 63°
2026-05-04 19:36 49.94810 -62.15862 2100 ft 267 kts 63°
2026-05-04 19:36 49.95515 -62.13205 2100 ft 266 kts 63°
2026-05-04 19:36 49.96227 -62.10530 2098 ft 267 kts 63°
2026-05-04 19:37 49.96936 -62.07856 2113 ft 267 kts 63°
2026-05-04 19:37 49.97652 -62.05159 2095 ft 272 kts 63°
2026-05-04 19:37 49.98369 -62.02450 2097 ft 268 kts 63°
2026-05-04 19:37 49.99072 -61.99794 2076 ft 272 kts 63°
2026-05-04 19:38 49.99792 -61.97065 2076 ft 271 kts 63°
2026-05-04 19:38 50.00501 -61.94374 2076 ft 269 kts 63°
2026-05-04 19:38 50.01214 -61.91676 2081 ft 270 kts 63°
2026-05-04 19:38 50.01928 -61.88964 2079 ft 269 kts 63°
2026-05-04 19:39 50.02633 -61.86282 2040 ft 268 kts 63°
2026-05-04 19:39 50.03345 -61.83578 2038 ft 271 kts 63°
2026-05-04 19:39 50.04054 -61.80871 2028 ft 269 kts 63°
2026-05-04 19:39 50.04762 -61.78169 2029 ft 271 kts 63°
2026-05-04 19:40 50.05474 -61.75456 2026 ft 270 kts 63°
2026-05-04 19:40 50.06178 -61.72759 2026 ft 269 kts 63°
2026-05-04 19:40 50.06880 -61.70069 1825 ft 268 kts 63°
2026-05-04 19:40 50.07576 -61.67399 1526 ft 264 kts 63°
2026-05-04 19:41 50.08271 -61.64741 1431 ft 271 kts 63°
2026-05-04 19:41 50.09095 -61.62141 1429 ft 264 kts 47°
2026-05-04 19:41 50.10457 -61.60417 1424 ft 241 kts 17°
2026-05-04 19:41 50.11984 -61.60048 1425 ft 208 kts 345°
2026-05-04 19:42 50.13112 -61.60899 1437 ft 164 kts 312°
2026-05-04 19:42 50.13651 -61.62240 1429 ft 126 kts 292°
2026-05-04 19:42 50.13898 -61.63466 1425 ft 119 kts 290°
2026-05-04 19:42 50.14196 -61.64647 1423 ft 116 kts 294°
2026-05-04 19:43 50.14545 -61.65786 1336 ft 116 kts 296°
2026-05-04 19:43 50.14915 -61.66892 1150 ft 114 kts 297°
2026-05-04 19:43 50.15300 -61.68003 1083 ft 118 kts 297°
2026-05-04 19:43 50.15684 -61.69114 1030 ft 115 kts 297°
2026-05-04 19:44 50.16060 -61.70210 830 ft 117 kts 297°
2026-05-04 19:44 50.16441 -61.71334 667 ft 117 kts 297°
2026-05-04 19:44 50.16821 -61.72470 499 ft 120 kts 299°
2026-05-04 19:44 50.17225 -61.73672 343 ft 129 kts 299°
2026-05-04 19:45 50.17632 -61.74899 327 ft 131 kts 300°
2026-05-04 19:45 50.18057 -61.76153 307 ft 128 kts 299°
2026-05-04 19:45 50.18446 -61.77289 201 ft 109 kts 302°
2026-05-04 19:45 50.18795 -61.78282 49 ft 98 kts 302°
2026-05-04 19:46 50.19059 -61.79038 45 ft 48 kts 297°
2026-05-04 19:46 50.19156 -61.79328 42 ft 24 kts 298°
2026-05-04 19:46 50.19242 -61.79576 40 ft 27 kts 298°
2026-05-04 19:46 50.19285 -61.79735 39 ft 5 kts 233°
2026-05-04 19:47 50.19256 -61.79708 39 ft 8 kts 116°
2026-05-04 19:47 50.19245 -61.79586 40 ft 16 kts 113°
2026-05-04 19:47 50.19188 -61.79413 43 ft 21 kts 117°
2026-05-04 19:47 50.19111 -61.79182 45 ft 27 kts 117°
2026-05-04 19:48 50.19034 -61.78961 44 ft 10 kts 117°
2026-05-04 19:48 50.18975 -61.78920 44 ft 10 kts 181°
2026-05-04 19:48 50.18940 -61.78926 43 ft 6 kts 189°
2026-05-04 19:48 50.18934 -61.78937 43 ft 0 kts 232°
2026-05-04 19:49 50.18935 -61.78941 43 ft 0 kts 258°
2026-05-04 19:49 50.18937 -61.78944 43 ft 0 kts 287°
2026-05-04 19:49 50.18935 -61.78933 43 ft 3 kts 332°
2026-05-04 19:49 50.18923 -61.78926 43 ft 1 kts 314°
2026-05-04 19:50 50.18919 -61.78923 42 ft 0 kts 287°
2026-05-04 19:50 50.18919 -61.78931 41 ft 1 kts 272°
2026-05-04 19:50 50.18920 -61.78937 42 ft 0 kts 287°
2026-05-04 19:50 50.18924 -61.78947 42 ft 2 kts 298°
2026-05-04 19:51 50.18928 -61.78958 43 ft 0 kts 298°
2026-05-04 19:51 50.18929 -61.78962 43 ft 1 kts 298°
2026-05-04 19:51 50.18929 -61.78963 43 ft 0 kts 299°